Time,TemperatureF,DewpointF,PressureIn,WindDirection,WindDirectionDegrees,WindSpeedMPH,WindSpeedGustMPH,Humidity,HourlyPrecipIn,Conditions,Clouds,dailyrainin,SoftwareType,DateUTC
2013-04-16 00:02:00,41.0,37.0,29.93,SW,218,0.0,0.0,84,0.00,,,0.67,,2013-04-16 05:02:00,
2013-04-16 00:12:00,41.0,37.0,29.93,SW,218,0.0,0.0,84,0.00,,,0.67,,2013-04-16 05:12:00,
2013-04-16 00:22:00,41.0,37.0,29.92,SW,218,0.0,0.0,84,0.00,,,0.67,,2013-04-16 05:22:00,
2013-04-16 00:32:00,40.0,35.0,29.93,West,269,0.0,5.0,83,0.00,,,0.67,,2013-04-16 05:32:00,
2013-04-16 00:42:00,40.0,35.0,29.93,West,269,0.0,5.0,83,0.00,,,0.67,,2013-04-16 05:42:00,
2013-04-16 00:52:00,39.0,34.0,29.95,West,275,0.0,4.0,82,0.00,,,0.67,,2013-04-16 05:52:00,
2013-04-16 01:02:00,39.0,34.0,29.94,SW,219,0.0,4.0,81,0.00,,,0.67,,2013-04-16 06:02:00,
2013-04-16 01:12:00,39.0,34.0,29.94,SW,219,0.0,4.0,81,0.00,,,0.67,,2013-04-16 06:12:00,
2013-04-16 01:22:00,39.0,33.0,29.94,WSW,257,0.0,1.0,80,0.00,,,0.67,,2013-04-16 06:22:00,
2013-04-16 01:32:00,38.0,32.0,29.93,West,265,0.0,2.0,80,0.00,,,0.49,,2013-04-16 06:32:00,
2013-04-16 01:42:00,38.0,32.0,29.93,West,265,0.0,2.0,80,0.00,,,0.49,,2013-04-16 06:42:00,
2013-04-16 01:52:00,38.0,32.0,29.93,West,265,0.0,0.0,80,0.00,,,0.49,,2013-04-16 06:52:00,
2013-04-16 02:02:00,37.0,32.0,29.94,West,265,0.0,0.0,81,0.00,,,0.49,,2013-04-16 07:02:00,
2013-04-16 02:12:00,37.0,32.0,29.94,West,265,0.0,0.0,81,0.00,,,0.49,,2013-04-16 07:12:00,
2013-04-16 02:22:00,37.0,32.0,29.93,West,261,1.0,4.0,82,0.00,,,0.49,,2013-04-16 07:22:00,
2013-04-16 02:32:00,37.0,32.0,29.94,West,261,1.0,4.0,82,0.00,,,0.18,,2013-04-16 07:32:00,
2013-04-16 02:42:00,37.0,32.0,29.94,West,261,1.0,4.0,82,0.00,,,0.18,,2013-04-16 07:42:00,
2013-04-16 02:53:00,37.0,32.0,29.95,WSW,249,0.0,6.0,82,0.00,,,0.18,,2013-04-16 07:53:00,
2013-04-16 03:02:00,37.0,32.0,29.95,NW,308,0.0,4.0,82,0.00,,,0.18,,2013-04-16 08:02:00,
2013-04-16 03:12:00,37.0,32.0,29.95,NW,308,0.0,4.0,82,0.00,,,0.18,,2013-04-16 08:12:00,
2013-04-16 03:22:00,36.0,31.0,29.96,NW,307,0.0,1.0,81,0.00,,,0.18,,2013-04-16 08:22:00,
2013-04-16 03:32:00,36.0,31.0,29.98,NW,307,0.0,2.0,81,0.00,,,0.07,,2013-04-16 08:32:00,
2013-04-16 03:42:00,36.0,31.0,29.98,NW,307,0.0,2.0,81,0.00,,,0.07,,2013-04-16 08:42:00,
2013-04-16 03:52:00,36.0,31.0,29.98,WNW,292,1.0,7.0,82,0.00,,,0.07,,2013-04-16 08:52:00,
2013-04-16 04:02:00,36.0,31.0,29.97,WNW,294,1.0,5.0,81,0.00,,,0.07,,2013-04-16 09:02:00,
2013-04-16 04:12:00,36.0,31.0,29.97,WNW,294,1.0,5.0,81,0.00,,,0.07,,2013-04-16 09:12:00,
2013-04-16 04:22:00,36.0,30.0,29.98,West,267,1.0,5.0,80,0.00,,,0.07,,2013-04-16 09:22:00,
2013-04-16 04:33:00,35.0,29.0,29.98,NW,306,3.0,6.0,80,0.00,,,0.07,,2013-04-16 09:33:00,
2013-04-16 04:42:00,35.0,29.0,29.98,NW,306,3.0,6.0,80,0.00,,,0.07,,2013-04-16 09:42:00,
2013-04-16 04:53:00,35.0,29.0,29.99,WNW,292,2.0,7.0,79,0.00,,,0.07,,2013-04-16 09:53:00,
2013-04-16 05:03:00,35.0,29.0,30.00,WSW,243,1.0,6.0,80,0.00,,,0.07,,2013-04-16 10:03:00,
2013-04-16 05:13:00,35.0,29.0,30.00,WSW,243,1.0,6.0,80,0.00,,,0.07,,2013-04-16 10:13:00,
2013-04-16 05:23:00,35.0,29.0,30.00,WNW,290,1.0,7.0,79,0.00,,,0.07,,2013-04-16 10:23:00,
2013-04-16 05:33:00,34.0,28.0,30.00,West,281,1.0,8.0,80,0.00,,,0.07,,2013-04-16 10:33:00,
2013-04-16 05:42:00,34.0,28.0,30.00,West,281,1.0,8.0,80,0.00,,,0.07,,2013-04-16 10:42:00,
2013-04-16 05:53:00,34.0,28.0,30.01,WNW,290,1.0,5.0,80,0.00,,,0.07,,2013-04-16 10:53:00,
2013-04-16 06:02:00,34.0,29.0,30.01,NW,304,2.0,8.0,81,0.00,,,0.07,,2013-04-16 11:02:00,
2013-04-16 06:12:00,34.0,29.0,30.01,NW,304,2.0,8.0,81,0.00,,,0.07,,2013-04-16 11:12:00,
2013-04-16 06:22:00,34.0,29.0,30.01,WSW,238,3.0,7.0,81,0.00,,,0.07,,2013-04-16 11:22:00,
2013-04-16 06:32:00,34.0,29.0,30.02,WNW,290,2.0,8.0,82,0.00,,,0.07,,2013-04-16 11:32:00,
2013-04-16 06:42:00,34.0,29.0,30.02,WNW,290,2.0,8.0,82,0.00,,,0.07,,2013-04-16 11:42:00,
2013-04-16 06:53:00,34.0,29.0,30.03,West,279,1.0,5.0,82,0.00,,,0.07,,2013-04-16 11:53:00,
2013-04-16 07:02:00,34.0,29.0,30.03,WNW,296,0.0,5.0,82,0.00,,,0.07,,2013-04-16 12:02:00,
2013-04-16 07:12:00,34.0,29.0,30.03,WNW,296,0.0,5.0,82,0.00,,,0.07,,2013-04-16 12:12:00,
2013-04-16 07:22:00,34.0,29.0,30.05,WSW,245,0.0,5.0,82,0.00,,,0.07,,2013-04-16 12:22:00,
2013-04-16 07:32:00,35.0,30.0,30.06,WSW,247,2.0,8.0,82,0.00,,,0.07,,2013-04-16 12:32:00,
2013-04-16 07:42:00,35.0,30.0,30.06,WSW,247,2.0,8.0,82,0.00,,,0.07,,2013-04-16 12:42:00,
2013-04-16 07:52:00,35.0,30.0,30.07,WNW,292,5.0,11.0,81,0.00,,,0.07,,2013-04-16 12:52:00,
2013-04-16 08:02:00,35.0,30.0,30.08,West,268,3.0,9.0,81,0.00,,,0.07,,2013-04-16 13:02:00,
2013-04-16 08:12:00,35.0,30.0,30.08,West,268,3.0,9.0,81,0.00,,,0.07,,2013-04-16 13:12:00,
2013-04-16 08:22:00,36.0,30.0,30.09,WNW,284,4.0,12.0,80,0.00,,,0.07,,2013-04-16 13:22:00,
2013-04-16 08:32:00,36.0,30.0,30.09,West,267,4.0,11.0,79,0.00,,,0.07,,2013-04-16 13:32:00,
2013-04-16 08:42:00,36.0,30.0,30.09,West,267,4.0,11.0,79,0.00,,,0.07,,2013-04-16 13:42:00,
2013-04-16 08:52:00,37.0,31.0,30.10,WNW,287,5.0,14.0,78,0.00,,,0.07,,2013-04-16 13:52:00,
2013-04-16 09:02:00,37.0,30.0,30.10,NNW,347,6.0,12.0,77,0.00,,,0.07,,2013-04-16 14:02:00,
2013-04-16 09:12:00,37.0,30.0,30.10,NNW,347,6.0,12.0,77,0.00,,,0.07,,2013-04-16 14:12:00,
2013-04-16 09:22:00,37.0,30.0,30.10,NW,313,4.0,12.0,75,0.00,,,0.07,,2013-04-16 14:22:00,
2013-04-16 09:32:00,38.0,30.0,30.10,NW,307,5.0,10.0,74,0.00,,,0.07,,2013-04-16 14:32:00,
2013-04-16 09:42:00,38.0,30.0,30.10,NW,307,5.0,10.0,74,0.00,,,0.07,,2013-04-16 14:42:00,
2013-04-16 09:52:00,38.0,30.0,30.11,SW,236,6.0,12.0,74,0.00,,,0.07,,2013-04-16 14:52:00,
2013-04-16 10:02:00,39.0,31.0,30.11,NW,313,3.0,11.0,74,0.00,,,0.07,,2013-04-16 15:02:00,
2013-04-16 10:12:00,39.0,31.0,30.11,NW,313,3.0,11.0,74,0.00,,,0.07,,2013-04-16 15:12:00,
2013-04-16 10:22:00,39.0,31.0,30.11,NW,306,6.0,15.0,73,0.01,,,0.08,,2013-04-16 15:22:00,
2013-04-16 10:33:00,40.0,32.0,30.11,NW,317,6.0,12.0,72,0.01,,,0.08,,2013-04-16 15:33:00,
2013-04-16 10:43:00,40.0,32.0,30.11,NW,317,6.0,12.0,72,0.01,,,0.08,,2013-04-16 15:43:00,
2013-04-16 10:53:00,40.0,32.0,30.12,WNW,286,8.0,14.0,72,0.01,,,0.08,,2013-04-16 15:53:00,
2013-04-16 11:03:00,41.0,32.0,30.13,West,275,4.0,11.0,71,0.01,,,0.08,,2013-04-16 16:03:00,
2013-04-16 11:13:00,41.0,32.0,30.13,West,275,4.0,11.0,71,0.01,,,0.08,,2013-04-16 16:13:00,
2013-04-16 11:23:00,41.0,32.0,30.13,West,272,7.0,14.0,69,0.00,,,0.08,,2013-04-16 16:23:00,
2013-04-16 11:32:00,42.0,33.0,30.13,NNW,331,3.0,14.0,70,0.00,,,0.08,,2013-04-16 16:32:00,
2013-04-16 11:42:00,42.0,33.0,30.13,NNW,331,3.0,14.0,70,0.00,,,0.08,,2013-04-16 16:42:00,
2013-04-16 11:53:00,43.0,34.0,30.13,NW,309,3.0,11.0,69,-99.99,,,-99.99,,2013-04-16 16:53:00,
2013-04-16 12:02:00,44.0,34.0,30.14,NNW,337,1.0,11.0,68,-99.99,,,-99.99,,2013-04-16 17:02:00,
2013-04-16 12:12:00,44.0,34.0,30.14,NNW,337,1.0,11.0,68,-99.99,,,-99.99,,2013-04-16 17:12:00,
2013-04-16 12:22:00,44.0,34.0,30.15,West,267,4.0,12.0,67,-99.99,,,-99.99,,2013-04-16 17:22:00,
2013-04-16 12:32:00,44.0,34.0,30.16,NW,310,4.0,11.0,67,-99.99,,,-99.99,,2013-04-16 17:32:00,
2013-04-16 12:43:00,44.0,34.0,30.16,NW,310,4.0,11.0,67,-99.99,,,-99.99,,2013-04-16 17:43:00,
2013-04-16 12:53:00,45.0,34.0,30.16,WNW,291,3.0,10.0,66,0.00,,,-99.99,,2013-04-16 17:53:00,
2013-04-16 13:02:00,45.0,34.0,30.16,NW,323,6.0,12.0,65,0.00,,,-99.99,,2013-04-16 18:02:00,
2013-04-16 13:12:00,45.0,34.0,30.16,WNW,296,7.0,11.0,64,0.00,,,-99.99,,2013-04-16 18:12:00,
2013-04-16 13:22:00,45.0,34.0,30.16,WNW,296,7.0,11.0,64,0.00,,,-99.99,,2013-04-16 18:22:00,
2013-04-16 13:32:00,46.0,35.0,30.16,West,276,6.0,9.0,65,0.00,,,-99.99,,2013-04-16 18:32:00,
2013-04-16 13:42:00,46.0,35.0,30.16,West,276,6.0,9.0,65,0.00,,,-99.99,,2013-04-16 18:42:00,
2013-04-16 13:52:00,46.0,34.0,30.16,West,261,5.0,11.0,63,0.00,,,-99.99,,2013-04-16 18:52:00,
2013-04-16 14:02:00,47.0,35.0,30.16,West,265,4.0,10.0,63,0.00,,,-99.99,,2013-04-16 19:02:00,
2013-04-16 14:12:00,47.0,35.0,30.16,West,265,4.0,10.0,63,0.00,,,-99.99,,2013-04-16 19:12:00,
2013-04-16 14:22:00,47.0,34.0,30.16,NW,311,3.0,9.0,61,0.00,,,-99.99,,2013-04-16 19:22:00,
2013-04-16 14:32:00,48.0,34.0,30.15,West,268,4.0,11.0,58,0.00,,,-99.99,,2013-04-16 19:32:00,
2013-04-16 14:42:00,48.0,34.0,30.15,West,268,4.0,11.0,58,0.00,,,-99.99,,2013-04-16 19:42:00,
2013-04-16 14:52:00,48.0,34.0,30.15,NNW,336,6.0,9.0,59,0.00,,,-99.99,,2013-04-16 19:52:00,
2013-04-16 15:02:00,49.0,34.0,30.15,NW,306,5.0,13.0,56,0.00,,,-99.99,,2013-04-16 20:02:00,
2013-04-16 15:12:00,49.0,34.0,30.15,NW,306,5.0,13.0,56,0.00,,,-99.99,,2013-04-16 20:12:00,
2013-04-16 15:22:00,49.0,34.0,30.15,West,266,4.0,11.0,57,0.00,,,-99.99,,2013-04-16 20:22:00,
2013-04-16 15:32:00,49.0,34.0,30.16,NNW,336,5.0,11.0,56,0.00,,,-99.99,,2013-04-16 20:32:00,
2013-04-16 15:42:00,49.0,34.0,30.16,NNW,336,5.0,11.0,56,0.00,,,-99.99,,2013-04-16 20:42:00,
2013-04-16 15:52:00,50.0,35.0,30.16,NW,313,4.0,10.0,56,0.00,,,-99.99,,2013-04-16 20:52:00,
2013-04-16 16:02:00,50.0,35.0,30.16,NW,325,4.0,11.0,56,0.00,,,-99.99,,2013-04-16 21:02:00,
2013-04-16 16:12:00,50.0,35.0,30.16,NW,325,4.0,11.0,56,0.00,,,-99.99,,2013-04-16 21:12:00,
2013-04-16 16:22:00,50.0,34.0,30.17,WNW,290,1.0,8.0,54,0.00,,,-99.99,,2013-04-16 21:22:00,
2013-04-16 16:32:00,50.0,33.0,30.17,NW,310,2.0,9.0,52,0.00,,,-99.99,,2013-04-16 21:32:00,
2013-04-16 16:43:00,50.0,33.0,30.17,NW,310,2.0,9.0,52,0.00,,,-99.99,,2013-04-16 21:43:00,
2013-04-16 16:53:00,50.0,34.0,30.17,WNW,299,2.0,9.0,53,0.00,,,-99.99,,2013-04-16 21:53:00,
2013-04-16 17:02:00,50.0,33.0,30.17,West,280,1.0,10.0,52,0.00,,,-99.99,,2013-04-16 22:02:00,
2013-04-16 17:13:00,50.0,33.0,30.17,West,280,1.0,10.0,52,0.00,,,-99.99,,2013-04-16 22:13:00,
2013-04-16 17:22:00,51.0,33.0,30.17,WNW,284,4.0,10.0,50,0.00,,,-99.99,,2013-04-16 22:22:00,
2013-04-16 17:33:00,51.0,34.0,30.18,WNW,300,3.0,8.0,51,0.00,,,-99.99,,2013-04-16 22:33:00,
2013-04-16 17:42:00,51.0,34.0,30.18,WNW,300,3.0,8.0,51,0.00,,,-99.99,,2013-04-16 22:42:00,
2013-04-16 17:52:00,51.0,34.0,30.18,West,264,4.0,7.0,51,0.00,,,-99.99,,2013-04-16 22:52:00,
2013-04-16 18:02:00,51.0,34.0,30.18,NE,53,2.0,7.0,51,0.00,,,-99.99,,2013-04-16 23:02:00,
2013-04-16 18:12:00,51.0,34.0,30.18,NE,53,2.0,7.0,51,0.00,,,-99.99,,2013-04-16 23:12:00,
2013-04-16 18:22:00,51.0,34.0,30.19,NNE,28,3.0,9.0,52,0.00,,,-99.99,,2013-04-16 23:22:00,
2013-04-16 18:32:00,50.0,34.0,30.19,NNE,22,5.0,11.0,54,0.00,,,-99.99,,2013-04-16 23:32:00,
2013-04-16 18:42:00,50.0,34.0,30.19,NNE,22,5.0,11.0,54,0.00,,,-99.99,,2013-04-16 23:42:00,
2013-04-16 18:52:00,50.0,34.0,30.19,NE,34,5.0,9.0,54,0.00,,,-99.99,,2013-04-16 23:52:00,
2013-04-16 19:02:00,49.0,34.0,30.20,NE,41,4.0,7.0,55,0.00,,,-99.99,,2013-04-17 00:02:00,
2013-04-16 19:12:00,49.0,34.0,30.20,NE,41,4.0,7.0,55,0.00,,,-99.99,,2013-04-17 00:12:00,
2013-04-16 19:22:00,49.0,34.0,30.20,NE,51,3.0,5.0,55,0.00,,,-99.99,,2013-04-17 00:22:00,
2013-04-16 19:32:00,48.0,33.0,30.20,NE,42,4.0,8.0,55,0.00,,,-99.99,,2013-04-17 00:32:00,
2013-04-16 19:42:00,48.0,33.0,30.20,NE,42,4.0,8.0,55,0.00,,,-99.99,,2013-04-17 00:42:00,
2013-04-16 19:52:00,47.0,33.0,30.21,NE,35,2.0,5.0,58,0.00,,,-99.99,,2013-04-17 00:52:00,
2013-04-16 20:02:00,46.0,33.0,30.22,NE,40,2.0,7.0,61,0.00,,,-99.99,,2013-04-17 01:02:00,
2013-04-16 20:12:00,46.0,33.0,30.22,NE,40,2.0,7.0,61,0.00,,,-99.99,,2013-04-17 01:12:00,
2013-04-16 20:22:00,45.0,33.0,30.21,NNW,348,2.0,7.0,63,0.00,,,-99.99,,2013-04-17 01:22:00,
2013-04-16 20:32:00,45.0,34.0,30.22,NNE,26,0.0,3.0,64,0.00,,,-99.99,,2013-04-17 01:32:00,
2013-04-16 20:42:00,45.0,34.0,30.22,NNE,26,0.0,3.0,64,0.00,,,-99.99,,2013-04-17 01:42:00,
2013-04-16 20:52:00,44.0,33.0,30.23,NE,56,1.0,5.0,66,0.00,,,-99.99,,2013-04-17 01:52:00,
2013-04-16 21:02:00,44.0,34.0,30.24,North,10,0.0,4.0,67,0.00,,,-99.99,,2013-04-17 02:02:00,
2013-04-16 21:12:00,44.0,34.0,30.24,North,10,0.0,4.0,67,0.00,,,-99.99,,2013-04-17 02:12:00,
2013-04-16 21:22:00,43.0,33.0,30.24,North,10,0.0,2.0,68,0.00,,,-99.99,,2013-04-17 02:22:00,
2013-04-16 21:32:00,43.0,34.0,30.24,North,10,0.0,2.0,70,0.00,,,-99.99,,2013-04-17 02:32:00,
2013-04-16 21:42:00,43.0,34.0,30.24,North,10,0.0,2.0,70,0.00,,,-99.99,,2013-04-17 02:42:00,
2013-04-16 21:52:00,42.0,33.0,30.25,North,10,0.0,1.0,71,0.00,,,-99.99,,2013-04-17 02:52:00,
2013-04-16 22:02:00,42.0,34.0,30.25,North,10,0.0,1.0,72,0.00,,,-99.99,,2013-04-17 03:02:00,
2013-04-16 22:12:00,42.0,34.0,30.25,North,10,0.0,1.0,72,0.00,,,-99.99,,2013-04-17 03:12:00,
2013-04-16 22:22:00,42.0,34.0,30.26,North,10,0.0,0.0,73,0.00,,,-99.99,,2013-04-17 03:22:00,
2013-04-16 22:32:00,41.0,33.0,30.26,North,10,0.0,0.0,73,0.00,,,-99.99,,2013-04-17 03:32:00,
2013-04-16 22:42:00,41.0,33.0,30.26,North,10,0.0,0.0,73,0.00,,,-99.99,,2013-04-17 03:42:00,
2013-04-16 22:53:00,41.0,33.0,30.26,North,10,0.0,0.0,74,0.00,,,-99.99,,2013-04-17 03:53:00,
2013-04-16 23:03:00,41.0,34.0,30.26,North,10,0.0,0.0,75,0.00,,,-99.99,,2013-04-17 04:03:00,
2013-04-16 23:13:00,41.0,34.0,30.26,North,10,0.0,0.0,75,0.00,,,-99.99,,2013-04-17 04:13:00,
2013-04-16 23:22:00,40.0,33.0,30.26,North,10,0.0,0.0,76,0.00,,,-99.99,,2013-04-17 04:22:00,
2013-04-16 23:33:00,41.0,34.0,30.27,North,10,0.0,0.0,76,0.00,,,-99.99,,2013-04-17 04:33:00,
2013-04-16 23:42:00,41.0,34.0,30.27,North,10,0.0,0.0,76,0.00,,,-99.99,,2013-04-17 04:42:00,
2013-04-16 23:52:00,41.0,34.0,30.27,North,10,0.0,0.0,76,0.00,,,-99.99,,2013-04-17 04:52:00,